SCP
0 0 -0 -0 -0 -0 -0 -0 -0 -0 -0 -0 -0 -0 -0 -0 -0 -0 -0 -0 -0 -0 -0 -0 -0 -0 -0 -0 -0 -0 -0 -0 -0 -0 -0 -0 -0 0 0 -0 -0 0 0
0 0 -0 -0 -0 -0 -0 -0 -0 -0 -0 -0 -0 -0 -0 -0 -0 -0 -0 -0 -0 -0 -0 -0 -0 -0 -0 -0 -0 -0 -0 -0 -0 -0 -0 0 -0 -0 0 0 -0 0 0
0 0 0 -0 -0 -0 -0 -0 -0 -0 -0 -0 -0 -0 -0 -0 -0 -0 -0 -0 -0 -0 -0 -0 -0 -0 -0 -0 -0 -0 -0 -0 -0 0 -0 0 0 0 0 0 0 0 0
0 0 0 0 0 0 0 -0 -0 -0 -0 -0 0 0 -0 -0 -0 -0 -0 -0 -0 -0 -0 -0 -0 -0 -0 -0 -0 -0 -0 -0 0 0 0 0 0 0 0 0 0 0 0
0 0 0 0 0 0 -0 -0 -0 -0 -0 0 0 0 0 0 0 0 0 0 0 0 0 0 0 -0 -0 -0 -0 0 0 0 0 0 0 0 0 0 0 0 0 0 0
0 0 0 0 0 0 0 0 0 0 0 0 0 0 0 0 0 0 0 0 0 0 0 0 0 0 0 0 0 0 0 0 0 0 0 0 0 0 0 0 0 0 0
0 0 0 0 0 0 0 0 0 0 0 0 0 0 0 0 0 0 0 0 0 0 0 0 0 0 0 0 0 0 0 0 0 0 0 0 0 0 0 0 0 0 0
0 0 0 0 0 0 0 0 0 0 0 0 0 0 0 0 0 0 0 0 0 0 0 0 0 0 0 0 0 0 0 0 0 0 0 0 0 0 0 0 0 0 0
0 0 0 0 0 0 0 0 0 0 0 0 0 0 0 0 0 0 0 0 0 0 0 0 0 0 0 0 0 0 0 0 0 0 0 0 0 0 0 0 0 0 0
0 0 0 0 0 0 0 0 0 0 0 0 0 0 0 0 0 0 0 0 0 0 0 0 0 0 0 0 0 0 0 0 0 0 0 0 0 0 0 0 0 0 0
0 0 0 0 0 0 0 0 0 0 0 0 0 0 0 0 0 0 0 0 0 0 0 0 0 0 0 0 0 0 0 0 0 0 0 0 0 0 0 0 0 0 0
0 0 0 0 0 0 0 0 0 0 0 0 0 0 0 0 0 0 0 0 0 0 0 0 0 0 0 0 0 0 0 0 0 0 0 0 0 0 0 0 0 0 0
0 0 0 0 0 0 0 0 0 0 0 0 0 0 0 0 0 0 0 0 0 0 0 0 0 0 0 0 0 0 0 0 0 0 0 0 0 0 0 0 0 0 0
0 0 0 0 0 0 0 0 0 0 0 0 0 0 0 0 0 0 0 0 0 0 0 0 0 0 0 0 0 0 0 0 0 0 0 0 0 0 0 0 0 0 0
0 0 0 0 0 0 0 0 0 0 0 0 0 0 0 0 0 0 0 0 0 0 0 0 0 0 0 0 0 0 0 0 0 0 0 0 0 0 0 0 0 0 0
0 0 0 0 0 0 0 0 0 0 0 0 0 0 0 0 0 0 0 0 0 0 0 0 0 0 0 0 0 0 0 0 0 0 0 0 0 0 0 0 0 0 0
0 0 0 0 0 0 0 0 0 0 0 0 0 0 0 0 0 0 0 0 0 0 0 0 0 0 0 0 0 0 0 0 0 0 0 0 0 0 0 0 0 0 0
0 0 0 0 0 0 0 0 0 0 0 0 0 0 0 0 0 0 0 0 0 0 0 0 0 0 0 0 0 0 0 0 0 0 0 0 0 0 0 0 0 0 0
0 0 0 0 0 0 0 0 0 0 0 0 0 0 0 0 0 0 0 0 0 0 0 0 0 0 0 0 0 0 0 0 0 0 0 0 0 0 0 0 0 0 0
0 0 0 0 0 0 0 0 0 0 0 0 0 0 0 0 0 0 0 0 0 0 0 0 0 0 0 0 0 0 0 0 0 0 0 0 0 0 0 0 0 0 0
0 0 0 0 0 0 0 0 0 0 0 0 0 0 0 0 0 0 0 0 0 0 0 0 -0 0 0 0 0 0 0 0 0 0 0 0 0 0 0 0 0 0 0
0 0 0 0 0 0 0 0 0 0 0 0 0 0 0 0 0 0 0 0 0 -0 0 0 0 -0 -0 0 0 0 0 0 0 0 0 0 0 0 0 0 0 0 0
0 0 0 0 0 0 0 0 0 0 0 0 0 0 0 0 0 0 0 0 0 0 0 0 0 0 0 -0 0 0 0 0 0 0 0 0 0 0 0 0 0 0 0
0 0 0 0 0 0 0 0 0 0 0 0 0 0 0 0 0 0 0 0 0 0 0 0 0 0 -0 0 -0 -0 -0 -0 -0 0 0 0 0 0 0 0 0 0 0
0 0 0 0 0 0 0 0 0 0 0 0 0 0 0 0 0 0 0 0 0 0 0 0 0 0 0 -0 -0 -0 -0 -0 -0 -0 0 0 0 0 0 0 0 0 0
0 0 0 0 0 0 0 0 0 0 0 0 0 0 0 0 0 0 0 0 0 0 0 0 0 0 0 0 -0 -0 -0 -0 -0 -0 -0 0 0 0 0 0 0 0 0
Wind_Speed_500mb
15 16 16 13 13 19 23 20 14 9 22 28 30 31 27 24 27 27 24 20 22 22 21 22 24 24 24 24 23 24 24 23 21 21 22 24 24 23 22 22 24 19 20
16 19 19 17 8 4 5 9 10 7 5 16 23 21 19 18 20 22 23 22 18 20 22 21 18 19 21 21 21 17 18 19 20 19 19 19 19 21 21 20 19 19 15
11 19 17 15 12 8 4 1 4 6 7 4 6 15 16 15 17 18 19 20 18 17 18 17 18 16 15 17 15 14 13 13 15 17 18 17 17 19 19 20 18 15 14
12 17 13 19 16 13 9 5 2 6 8 6 8 9 10 15 14 14 15 17 17 16 11 10 10 11 8 7 7 9 10 11 11 11 15 16 15 16 19 18 18 13 12
11 14 11 19 19 19 14 6 3 11 10 6 8 9 10 10 8 8 10 12 16 18 17 13 10 9 6 6 8 9 9 9 9 11 11 14 15 13 16 19 17 14 6
11 9 6 16 19 17 14 11 8 12 11 7 6 10 13 14 17 14 11 11 11 12 15 15 12 10 11 11 8 7 8 8 9 8 9 11 15 14 12 15 15 13 5
11 8 7 6 9 11 13 12 12 11 9 8 11 12 13 14 15 14 14 14 13 11 11 11 13 13 12 12 10 8 7 7 7 8 9 9 9 14 15 13 15 13 7
12 11 5 4 1 4 13 13 13 16 12 12 14 16 16 17 18 18 17 17 19 20 16 12 10 11 12 11 12 13 11 8 9 10 9 14 8 9 14 14 15 13 8
12 8 8 5 3 6 9 8 13 16 16 17 18 18 19 20 20 21 22 20 18 19 21 17 16 11 12 12 12 12 13 12 10 7 10 5 5 12 14 14 14 13 13
13 10 9 10 4 4 7 10 14 16 15 14 14 16 17 17 19 20 19 19 20 20 20 19 19 17 14 16 14 13 12 11 10 9 6 6 5 12 14 15 16 16 16
14 11 9 7 7 6 7 9 12 12 12 14 15 16 16 17 18 18 19 19 18 19 19 19 18 17 17 19 18 16 14 12 9 8 8 6 5 9 13 13 16 17 18
14 13 12 10 9 8 7 8 9 10 11 12 12 12 14 15 16 17 19 18 18 19 21 21 20 19 22 23 26 23 19 14 11 8 10 11 10 7 11 12 16 20 21
18 16 14 11 9 8 7 7 8 8 9 9 10 10 11 12 13 13 13 13 12 15 18 20 21 23 25 23 22 23 23 21 19 15 15 15 16 17 14 7 12 19 24
22 19 16 14 11 9 8 6 6 5 5 5 5 7 7 9 11 12 14 15 15 15 15 15 14 15 19 22 21 20 20 20 20 19 19 22 23 23 22 22 18 17 18
25 21 18 15 12 9 7 5 3 2 1 2 5 6 9 12 13 15 18 19 20 20 18 18 18 17 15 15 17 19 21 21 21 19 19 21 27 28 30 29 28 24 22
28 25 21 18 15 12 9 7 5 3 2 5 7 9 13 15 17 19 21 23 24 24 25 26 24 22 20 18 17 16 15 15 20 20 19 22 28 30 33 35 36 37 33
30 26 24 21 18 15 12 10 8 6 4 5 6 9 12 15 18 22 24 25 26 28 28 28 27 26 24 22 18 13 11 9 10 13 15 21 21 30 34 38 40 38 35
32 29 25 21 18 15 13 11 9 8 5 4 6 8 11 15 18 20 22 23 26 27 28 28 28 28 26 23 19 13 9 7 11 11 11 14 18 23 26 30 36 42 44
40 36 32 27 23 19 16 13 11 8 6 5 5 7 10 13 15 18 21 24 27 30 31 33 34 34 32 29 21 13 8 8 18 20 19 17 19 23 25 26 28 32 38
41 37 33 28 24 20 18 16 12 9 6 2 3 6 9 12 16 19 22 26 30 33 35 38 39 40 40 34 24 16 10 7 32 25 25 26 29 26 26 28 31 31 29
45 40 34 29 25 21 20 18 14 11 8 4 1 4 8 11 14 18 22 25 28 31 35 39 40 41 42 40 32 20 20 9 24 19 35 34 36 33 33 32 30 30 32
48 42 39 34 27 24 23 23 20 15 11 7 4 1 4 8 12 15 18 21 25 29 33 36 40 42 45 49 46 25 14 8 36 10 38 39 44 40 40 38 36 36 34
50 46 41 34 29 26 24 23 21 18 13 8 5 2 3 7 10 13 15 18 20 24 28 32 36 39 43 44 46 36 13 11 36 26 43 46 53 49 49 42 42 41 39
54 50 44 36 31 27 24 22 20 18 15 12 9 6 3 4 7 9 11 13 15 18 21 26 30 34 36 40 40 40 34 30 17 22 33 41 56 56 59 51 51 48 48
59 53 46 40 34 30 26 23 22 22 19 16 13 10 5 5 7 9 10 10 10 12 16 19 23 27 30 33 34 34 32 25 26 20 34 48 52 54 58 55 57 54 57
61 55 47 42 36 34 32 29 26 23 20 18 16 12 10 10 9 9 9 9 9 9 11 14 17 21 24 27 28 30 30 23 21 21 27 48 53 56 52 51 58 58 63
Wind_Direction_500mb
164 144 154 138 78 59 52 50 53 103 80 73 63 60 58 69 62 64 62 61 59 57 56 58 56 55 59 53 51 62 69 71 66 61 60 59 60 63 63 63 67 68 81
170 160 160 162 159 131 50 50 34 34 96 91 79 62 53 67 75 72 68 63 60 64 59 51 52 54 56 53 49 48 54 60 67 65 59 52 53 54 54 53 54 67 78
165 166 179 170 164 184 173 22 28 32 4 8 91 67 53 42 55 69 66 63 76 70 69 68 55 57 53 51 48 47 52 55 59 57 56 40 45 43 47 47 52 64 83
156 163 181 180 180 194 206 210 292 326 325 341 348 351 28 34 24 26 28 34 37 37 52 61 52 49 47 43 36 42 42 44 44 41 38 35 46 38 39 37 38 58 87
134 166 199 194 198 189 202 201 299 309 284 315 336 341 346 337 324 339 349 357 6 18 28 32 28 2 356 357 12 16 19 24 28 30 28 35 43 12 31 31 26 46 83
147 153 193 213 214 213 214 219 259 289 315 281 281 303 321 320 321 314 299 305 324 339 356 9 24 3 356 358 353 356 357 5 10 12 13 18 17 13 16 17 17 27 68
156 138 157 163 222 230 247 250 266 260 286 283 294 295 303 309 317 324 307 287 280 293 315 333 347 353 352 353 349 349 353 350 4 358 359 2 350 355 358 1 11 10 18
170 176 149 157 232 277 251 260 262 291 281 267 285 291 293 300 304 302 301 304 302 291 279 282 312 324 332 339 341 344 353 351 21 19 17 18 349 339 350 347 353 357 353
168 170 204 212 254 296 290 291 295 294 294 300 299 298 298 298 298 296 295 295 293 291 301 286 265 287 303 311 324 332 339 343 343 359 29 328 356 6 344 344 340 337 336
172 177 196 208 236 283 316 326 308 309 308 310 308 308 311 313 312 309 307 303 293 290 288 294 297 271 281 295 302 312 323 333 329 329 327 328 336 8 350 346 338 337 336
183 190 209 222 244 271 295 305 314 321 327 317 314 310 311 309 309 308 308 307 302 298 293 285 288 286 283 279 289 295 297 305 309 314 321 323 302 0 343 343 348 343 338
196 207 215 223 232 244 262 279 291 301 307 309 311 312 313 317 319 320 318 310 304 301 299 295 290 280 273 268 277 277 282 286 291 303 297 293 293 293 348 329 328 329 326
205 213 219 228 238 250 266 276 290 299 305 309 318 325 331 335 338 339 335 329 323 308 296 291 289 288 285 282 280 275 273 271 272 279 287 287 280 271 272 311 335 324 324
211 220 225 229 235 244 252 265 282 297 303 320 341 1 3 7 8 6 6 4 1 354 347 336 330 313 299 292 291 285 282 277 274 272 270 270 269 269 274 279 308 307 315
216 221 226 230 234 241 247 249 240 237 199 69 59 49 44 40 34 26 21 16 15 14 10 5 2 353 345 328 312 299 288 284 282 277 266 261 258 261 261 264 269 275 266
215 216 220 224 229 235 239 240 230 208 146 83 67 57 47 41 39 36 31 26 22 19 17 17 15 11 5 357 347 333 318 301 281 278 267 267 258 260 263 265 268 268 273
217 216 216 215 215 216 214 213 203 191 157 97 71 56 52 47 42 37 31 27 24 23 20 18 16 15 13 9 1 347 333 329 321 298 284 275 274 263 264 267 267 271 276
221 224 226 225 224 222 216 211 202 192 166 127 103 79 62 52 46 43 38 35 32 28 25 24 25 26 23 19 14 10 11 23 15 355 335 318 303 294 282 275 272 271 270
221 221 221 222 224 227 226 219 212 199 180 157 115 83 69 61 54 49 43 39 36 33 29 28 29 29 29 27 28 33 47 75 39 25 6 342 332 325 318 302 295 288 287
222 222 222 222 224 225 222 219 217 213 208 181 103 77 63 55 48 46 42 37 34 31 29 29 28 27 26 29 35 36 44 130 33 25 17 8 358 349 339 329 314 307 303
225 224 226 227 229 230 226 222 222 220 214 209 156 47 42 43 42 42 42 39 37 33 30 29 28 28 26 24 35 54 33 152 5 17 13 9 4 1 355 350 343 331 314
225 223 224 226 227 228 226 224 226 225 225 224 225 66 38 39 40 40 41 42 39 37 33 31 32 31 29 28 29 32 20 18 340 11 7 12 10 9 3 358 351 348 345
225 224 224 225 227 228 226 224 224 226 232 240 245 298 7 23 29 29 33 36 36 34 31 29 29 30 31 31 35 42 26 359 352 340 359 4 6 10 6 5 358 350 347
227 226 226 226 228 229 227 226 224 226 233 240 246 256 294 358 11 14 16 21 27 29 30 28 28 28 29 31 29 31 27 20 10 334 350 350 358 1 2 3 3 357 350
227 225 222 223 225 225 223 222 222 224 226 231 238 245 270 308 327 337 341 348 0 13 22 26 25 25 26 27 28 26 25 15 15 345 327 336 347 353 353 359 359 358 353
223 222 222 223 224 222 220 219 220 222 225 230 234 238 247 260 271 282 295 306 321 345 3 10 16 19 20 20 19 19 20 16 351 344 324 333 332 340 347 345 350 352 352
Wind_Speed_850mb
15 16 16 13 13 19 23 20 14 9 22 28 30 31 27 24 27 27 24 20 22 22 21 22 24 24 24 24 23 24 24 23 21 21 22 24 24 23 22 22 24 19 20
16 19 19 17 8 4 5 9 10 7 5 16 23 21 19 18 20 22 23 22 18 20 22 21 18 19 21 21 21 17 18 19 20 19 19 19 19 21 21 20 19 19 15
11 19 17 15 12 8 4 1 4 6 7 4 6 15 16 15 17 18 19 20 18 17 18 17 18 16 15 17 15 14 13 13 15 17 18 17 17 19 19 20 18 15 14
12 17 13 19 16 13 9 5 2 6 8 6 8 9 10 15 14 14 15 17 17 16 11 10 10 11 8 7 7 9 10 11 11 11 15 16 15 16 19 18 18 13 12
11 14 11 19 19 19 14 6 3 11 10 6 8 9 10 10 8 8 10 12 16 18 17 13 10 9 6 6 8 9 9 9 9 11 11 14 15 13 16 19 17 14 6
11 9 6 16 19 17 14 11 8 12 11 7 6 10 13 14 17 14 11 11 11 12 15 15 12 10 11 11 8 7 8 8 9 8 9 11 15 14 12 15 15 13 5
11 8 7 6 9 11 13 12 12 11 9 8 11 12 13 14 15 14 14 14 13 11 11 11 13 13 12 12 10 8 7 7 7 8 9 9 9 14 15 13 15 13 7
12 11 5 4 1 4 13 13 13 16 12 12 14 16 16 17 18 18 17 17 19 20 16 12 10 11 12 11 12 13 11 8 9 10 9 14 8 9 14 14 15 13 8
12 8 8 5 3 6 9 8 13 16 16 17 18 18 19 20 20 21 22 20 18 19 21 17 16 11 12 12 12 12 13 12 10 7 10 5 5 12 14 14 14 13 13
13 10 9 10 4 4 7 10 14 16 15 14 14 16 17 17 19 20 19 19 20 20 20 19 19 17 14 16 14 13 12 11 10 9 6 6 5 12 14 15 16 16 16
14 11 9 7 7 6 7 9 12 12 12 14 15 16 16 17 18 18 19 19 18 19 19 19 18 17 17 19 18 16 14 12 9 8 8 6 5 9 13 13 16 17 18
14 13 12 10 9 8 7 8 9 10 11 12 12 12 14 15 16 17 19 18 18 19 21 21 20 19 22 23 26 23 19 14 11 8 10 11 10 7 11 12 16 20 21
18 16 14 11 9 8 7 7 8 8 9 9 10 10 11 12 13 13 13 13 12 15 18 20 21 23 25 23 22 23 23 21 19 15 15 15 16 17 14 7 12 19 24
22 19 16 14 11 9 8 6 6 5 5 5 5 7 7 9 11 12 14 15 15 15 15 15 14 15 19 22 21 20 20 20 20 19 19 22 23 23 22 22 18 17 18
25 21 18 15 12 9 7 5 3 2 1 2 5 6 9 12 13 15 18 19 20 20 18 18 18 17 15 15 17 19 21 21 21 19 19 21 27 28 30 29 28 24 22
28 25 21 18 15 12 9 7 5 3 2 5 7 9 13 15 17 19 21 23 24 24 25 26 24 22 20 18 17 16 15 15 20 20 19 22 28 30 33 35 36 37 33
30 26 24 21 18 15 12 10 8 6 4 5 6 9 12 15 18 22 24 25 26 28 28 28 27 26 24 22 18 13 11 9 10 13 15 21 21 30 34 38 40 38 35
32 29 25 21 18 15 13 11 9 8 5 4 6 8 11 15 18 20 22 23 26 27 28 28 28 28 26 23 19 13 9 7 11 11 11 14 18 23 26 30 36 42 44
40 36 32 27 23 19 16 13 11 8 6 5 5 7 10 13 15 18 21 24 27 30 31 33 34 34 32 29 21 13 8 8 18 20 19 17 19 23 25 26 28 32 38
41 37 33 28 24 20 18 16 12 9 6 2 3 6 9 12 16 19 22 26 30 33 35 38 39 40 40 34 24 16 10 7 32 25 25 26 29 26 26 28 31 31 29
45 40 34 29 25 21 20 18 14 11 8 4 1 4 8 11 14 18 22 25 28 31 35 39 40 41 42 40 32 20 20 9 24 19 35 34 36 33 33 32 30 30 32
48 42 39 34 27 24 23 23 20 15 11 7 4 1 4 8 12 15 18 21 25 29 33 36 40 42 45 49 46 25 14 8 36 10 38 39 44 40 40 38 36 36 34
50 46 41 34 29 26 24 23 21 18 13 8 5 2 3 7 10 13 15 18 20 24 28 32 36 39 43 44 46 36 13 11 36 26 43 46 53 49 49 42 42 41 39
54 50 44 36 31 27 24 22 20 18 15 12 9 6 3 4 7 9 11 13 15 18 21 26 30 34 36 40 40 40 34 30 17 22 33 41 56 56 59 51 51 48 48
59 53 46 40 34 30 26 23 22 22 19 16 13 10 5 5 7 9 10 10 10 12 16 19 23 27 30 33 34 34 32 25 26 20 34 48 52 54 58 55 57 54 57
61 55 47 42 36 34 32 29 26 23 20 18 16 12 10 10 9 9 9 9 9 9 11 14 17 21 24 27 28 30 30 23 21 21 27 48 53 56 52 51 58 58 63
Wind_Direction_850mb
164 144 154 138 78 59 52 50 53 103 80 73 63 60 58 69 62 64 62 61 59 57 56 58 56 55 59 53 51 62 69 71 66 61 60 59 60 63 63 63 67 68 81
170 160 160 162 159 131 50 50 34 34 96 91 79 62 53 67 75 72 68 63 60 64 59 51 52 54 56 53 49 48 54 60 67 65 59 52 53 54 54 53 54 67 78
165 166 179 170 164 184 173 22 28 32 4 8 91 67 53 42 55 69 66 63 76 70 69 68 55 57 53 51 48 47 52 55 59 57 56 40 45 43 47 47 52 64 83
156 163 181 180 180 194 206 210 292 326 325 341 348 351 28 34 24 26 28 34 37 37 52 61 52 49 47 43 36 42 42 44 44 41 38 35 46 38 39 37 38 58 87
134 166 199 194 198 189 202 201 299 309 284 315 336 341 346 337 324 339 349 357 6 18 28 32 28 2 356 357 12 16 19 24 28 30 28 35 43 12 31 31 26 46 83
147 153 193 213 214 213 214 219 259 289 315 281 281 303 321 320 321 314 299 305 324 339 356 9 24 3 356 358 353 356 357 5 10 12 13 18 17 13 16 17 17 27 68
156 138 157 163 222 230 247 250 266 260 286 283 294 295 303 309 317 324 307 287 280 293 315 333 347 353 352 353 349 349 353 350 4 358 359 2 350 355 358 1 11 10 18
170 176 149 157 232 277 251 260 262 291 281 267 285 291 293 300 304 302 301 304 302 291 279 282 312 324 332 339 341 344 353 351 21 19 17 18 349 339 350 347 353 357 353
168 170 204 212 254 296 290 291 295 294 294 300 299 298 298 298 298 296 295 295 293 291 301 286 265 287 303 311 324 332 339 343 343 359 29 328 356 6 344 344 340 337 336
172 177 196 208 236 283 316 326 308 309 308 310 308 308 311 313 312 309 307 303 293 290 288 294 297 271 281 295 302 312 323 333 329 329 327 328 336 8 350 346 338 337 336
183 190 209 222 244 271 295 305 314 321 327 317 314 310 311 309 309 308 308 307 302 298 293 285 288 286 283 279 289 295 297 305 309 314 321 323 302 0 343 343 348 343 338
196 207 215 223 232 244 262 279 291 301 307 309 311 312 313 317 319 320 318 310 304 301 299 295 290 280 273 268 277 277 282 286 291 303 297 293 293 293 348 329 328 329 326
205 213 219 228 238 250 266 276 290 299 305 309 318 325 331 335 338 339 335 329 323 308 296 291 289 288 285 282 280 275 273 271 272 279 287 287 280 271 272 311 335 324 324
211 220 225 229 235 244 252 265 282 297 303 320 341 1 3 7 8 6 6 4 1 354 347 336 330 313 299 292 291 285 282 277 274 272 270 270 269 269 274 279 308 307 315
216 221 226 230 234 241 247 249 240 237 199 69 59 49 44 40 34 26 21 16 15 14 10 5 2 353 345 328 312 299 288 284 282 277 266 261 258 261 261 264 269 275 266
215 216 220 224 229 235 239 240 230 208 146 83 67 57 47 41 39 36 31 26 22 19 17 17 15 11 5 357 347 333 318 301 281 278 267 267 258 260 263 265 268 268 273
217 216 216 215 215 216 214 213 203 191 157 97 71 56 52 47 42 37 31 27 24 23 20 18 16 15 13 9 1 347 333 329 321 298 284 275 274 263 264 267 267 271 276
221 224 226 225 224 222 216 211 202 192 166 127 103 79 62 52 46 43 38 35 32 28 25 24 25 26 23 19 14 10 11 23 15 355 335 318 303 294 282 275 272 271 270
221 221 221 222 224 227 226 219 212 199 180 157 115 83 69 61 54 49 43 39 36 33 29 28 29 29 29 27 28 33 47 75 39 25 6 342 332 325 318 302 295 288 287
222 222 222 222 224 225 222 219 217 213 208 181 103 77 63 55 48 46 42 37 34 31 29 29 28 27 26 29 35 36 44 130 33 25 17 8 358 349 339 329 314 307 303
225 224 226 227 229 230 226 222 222 220 214 209 156 47 42 43 42 42 42 39 37 33 30 29 28 28 26 24 35 54 33 152 5 17 13 9 4 1 355 350 343 331 314
225 223 224 226 227 228 226 224 226 225 225 224 225 66 38 39 40 40 41 42 39 37 33 31 32 31 29 28 29 32 20 18 340 11 7 12 10 9 3 358 351 348 345
225 224 224 225 227 228 226 224 224 226 232 240 245 298 7 23 29 29 33 36 36 34 31 29 29 30 31 31 35 42 26 359 352 340 359 4 6 10 6 5 358 350 347
227 226 226 226 228 229 227 226 224 226 233 240 246 256 294 358 11 14 16 21 27 29 30 28 28 28 29 31 29 31 27 20 10 334 350 350 358 1 2 3 3 357 350
227 225 222 223 225 225 223 222 222 224 226 231 238 245 270 308 327 337 341 348 0 13 22 26 25 25 26 27 28 26 25 15 15 345 327 336 347 353 353 359 359 358 353
223 222 222 223 224 222 220 219 220 222 225 230 234 238 247 260 271 282 295 306 321 345 3 10 16 19 20 20 19 19 20 16 351 344 324 333 332 340 347 345 350 352 352